TimeCST,TemperatureF,Dew PointF,Humidity,Sea Level PressureIn,VisibilityMPH,Wind Direction,Wind SpeedMPH,Gust SpeedMPH,PrecipitationIn,Events,Conditions,WindDirDegrees,DateUTC
12:15 AM,46.4,23.0,40,30.16,10.0,SSE,5.8,-,N/A,,Clear,160,2012-12-14 06:15:00
12:35 AM,46.4,23.0,40,30.16,10.0,SSE,5.8,-,N/A,,Scattered Clouds,160,2012-12-14 06:35:00
12:55 AM,48.2,24.8,40,30.16,10.0,SSE,8.1,-,N/A,,Overcast,160,2012-12-14 06:55:00
1:15 AM,48.2,26.6,43,30.16,10.0,SSE,6.9,-,N/A,,Overcast,160,2012-12-14 07:15:00
1:35 AM,50.0,26.6,40,30.17,10.0,South,9.2,-,N/A,,Overcast,170,2012-12-14 07:35:00
1:55 AM,50.0,26.6,40,30.17,10.0,South,10.4,-,N/A,,Overcast,170,2012-12-14 07:55:00
2:15 AM,50.0,24.8,37,30.16,10.0,South,9.2,-,N/A,,Overcast,170,2012-12-14 08:15:00
2:35 AM,50.0,26.6,40,30.15,10.0,SSE,10.4,-,N/A,,Overcast,160,2012-12-14 08:35:00
2:55 AM,50.0,26.6,40,30.15,10.0,South,8.1,-,N/A,,Overcast,170,2012-12-14 08:55:00
3:15 AM,50.0,26.6,40,30.14,10.0,South,9.2,-,N/A,,Overcast,170,2012-12-14 09:15:00
3:35 AM,50.0,28.4,43,30.14,10.0,South,9.2,-,N/A,,Overcast,190,2012-12-14 09:35:00
3:55 AM,50.0,24.8,37,30.13,10.0,South,8.1,-,N/A,,Overcast,180,2012-12-14 09:55:00
4:15 AM,51.8,24.8,35,30.12,10.0,South,8.1,-,N/A,,Overcast,180,2012-12-14 10:15:00
4:35 AM,51.8,28.4,41,30.12,10.0,South,8.1,-,N/A,,Overcast,180,2012-12-14 10:35:00
4:55 AM,51.8,28.4,41,30.11,10.0,South,5.8,-,N/A,,Overcast,180,2012-12-14 10:55:00
5:15 AM,51.8,28.4,41,30.11,10.0,South,8.1,-,N/A,,Overcast,190,2012-12-14 11:15:00
5:35 AM,51.8,26.6,38,30.11,10.0,SSW,6.9,-,N/A,,Overcast,200,2012-12-14 11:35:00
6:15 AM,51.8,28.4,41,30.11,10.0,South,6.9,-,N/A,,Overcast,170,2012-12-14 12:15:00
6:35 AM,51.8,30.2,44,30.11,10.0,South,8.1,-,N/A,,Overcast,180,2012-12-14 12:35:00
6:55 AM,51.8,30.2,44,30.11,10.0,South,8.1,-,N/A,,Overcast,180,2012-12-14 12:55:00
7:15 AM,51.8,32.0,47,30.11,10.0,South,6.9,-,N/A,,Overcast,170,2012-12-14 13:15:00
7:35 AM,51.8,32.0,47,30.11,10.0,South,9.2,-,N/A,,Overcast,170,2012-12-14 13:35:00
7:55 AM,51.8,32.0,47,30.10,10.0,South,8.1,-,N/A,,Overcast,170,2012-12-14 13:55:00
8:15 AM,51.8,32.0,47,30.10,10.0,South,9.2,-,N/A,,Overcast,170,2012-12-14 14:15:00
8:35 AM,51.8,32.0,47,30.10,10.0,SSE,9.2,-,N/A,,Overcast,160,2012-12-14 14:35:00
8:55 AM,51.8,30.2,44,30.10,10.0,SSE,8.1,-,N/A,,Overcast,160,2012-12-14 14:55:00
9:15 AM,53.6,28.4,38,30.10,10.0,SSE,9.2,-,N/A,,Overcast,160,2012-12-14 15:15:00
9:35 AM,53.6,30.2,41,30.09,10.0,SSE,9.2,-,N/A,Rain,Rain,160,2012-12-14 15:35:00
9:55 AM,51.8,30.2,44,30.10,10.0,South,8.1,-,N/A,,Overcast,170,2012-12-14 15:55:00
10:15 AM,53.6,30.2,41,30.11,10.0,South,5.8,-,N/A,,Overcast,170,2012-12-14 16:15:00
10:35 AM,50.0,33.8,54,30.10,10.0,South,6.9,-,N/A,,Overcast,170,2012-12-14 16:35:00
10:55 AM,51.8,32.0,47,30.08,10.0,SSE,6.9,-,N/A,,Overcast,150,2012-12-14 16:55:00
11:15 AM,51.8,32.0,47,30.07,10.0,SSE,8.1,-,N/A,,Overcast,160,2012-12-14 17:15:00
11:35 AM,53.6,32.0,44,30.05,10.0,SSE,9.2,-,N/A,,Overcast,160,2012-12-14 17:35:00
12:15 PM,51.8,35.6,54,30.02,10.0,SSE,8.1,-,0.01,Rain,Light Rain,160,2012-12-14 18:15:00
12:35 PM,51.8,39.2,62,30.01,10.0,SSE,6.9,-,0.02,Rain,Rain,160,2012-12-14 18:35:00
12:55 PM,51.8,41.0,67,29.99,10.0,SE,6.9,-,0.02,Rain,Light Rain,140,2012-12-14 18:55:00
1:15 PM,51.8,44.6,76,29.96,7.0,SSE,9.2,-,0.01,Rain,Light Rain,150,2012-12-14 19:15:00
1:35 PM,50.0,46.4,87,29.95,10.0,SSE,13.8,18.4,0.02,Rain,Light Rain,160,2012-12-14 19:35:00
1:55 PM,50.0,46.4,87,29.93,10.0,SSE,16.1,20.7,0.03,Rain,Light Rain,150,2012-12-14 19:55:00
2:15 PM,50.0,46.4,87,29.91,10.0,SSE,17.3,23.0,0.01,Rain,Light Rain,160,2012-12-14 20:15:00
2:35 PM,50.0,46.4,87,29.89,10.0,SSE,18.4,26.5,0.01,Rain,Light Rain,160,2012-12-14 20:35:00
2:55 PM,50.0,46.4,87,29.89,10.0,SSE,15.0,20.7,0.01,,Light Drizzle,160,2012-12-14 20:55:00
3:35 PM,48.2,46.4,93,29.90,10.0,SSE,12.7,18.4,N/A,,Light Drizzle,160,2012-12-14 21:35:00
3:55 PM,48.2,46.4,93,29.89,10.0,SSE,11.5,-,0.01,Rain,Light Rain,160,2012-12-14 21:55:00
4:15 PM,48.2,46.4,93,29.86,10.0,SSE,13.8,20.7,0.01,,Drizzle,160,2012-12-14 22:15:00
4:35 PM,48.2,46.4,93,29.86,10.0,SSE,11.5,20.7,0.01,,Overcast,150,2012-12-14 22:35:00
5:15 PM,46.4,44.6,93,29.84,10.0,SE,9.2,17.3,N/A,,Overcast,140,2012-12-14 23:15:00
5:35 PM,48.2,44.6,87,29.85,10.0,SE,10.4,17.3,N/A,,Overcast,140,2012-12-14 23:35:00
5:55 PM,48.2,44.6,87,29.85,10.0,SSE,10.4,-,N/A,,Overcast,150,2012-12-14 23:55:00
6:15 PM,50.0,44.6,82,29.85,10.0,SSE,9.2,17.3,N/A,,Overcast,160,2012-12-15 00:15:00
6:35 PM,50.0,44.6,82,29.85,10.0,SSE,12.7,18.4,N/A,,Overcast,160,2012-12-15 00:35:00
6:55 PM,50.0,46.4,87,29.85,7.0,SSE,9.2,-,N/A,,Overcast,150,2012-12-15 00:55:00
7:15 PM,50.0,46.4,87,29.85,5.0,SSE,9.2,-,N/A,,Overcast,150,2012-12-15 01:15:00
7:35 PM,50.0,46.4,87,29.84,10.0,SE,9.2,-,N/A,,Overcast,140,2012-12-15 01:35:00
7:55 PM,50.0,46.4,87,29.83,10.0,SSE,10.4,-,N/A,,Overcast,160,2012-12-15 01:55:00
8:15 PM,50.0,46.4,87,29.82,10.0,SSE,10.4,-,N/A,,Overcast,160,2012-12-15 02:15:00
8:35 PM,51.8,46.4,82,29.82,10.0,South,9.2,-,N/A,,Overcast,170,2012-12-15 02:35:00
8:55 PM,51.8,48.2,88,29.83,10.0,South,8.1,-,N/A,,Overcast,170,2012-12-15 02:55:00
9:15 PM,51.8,50.0,94,29.81,10.0,SSE,10.4,-,N/A,Rain,Light Rain,160,2012-12-15 03:15:00
9:35 PM,51.8,50.0,94,29.82,5.0,South,9.2,-,0.01,Rain,Light Rain,180,2012-12-15 03:35:00
9:55 PM,53.6,51.8,94,29.87,2.5,West,8.1,18.4,0.14,Rain,Heavy Rain,280,2012-12-15 03:55:00
10:15 PM,53.6,51.8,94,29.84,10.0,South,5.8,-,0.01,,Overcast,180,2012-12-15 04:15:00
10:35 PM,53.6,51.8,94,29.85,10.0,South,4.6,-,0.01,,Light Drizzle,180,2012-12-15 04:35:00
10:55 PM,55.4,53.6,94,29.83,10.0,South,5.8,-,0.01,,Overcast,190,2012-12-15 04:55:00
11:15 PM,53.6,51.8,94,29.83,7.0,South,5.8,-,N/A,,Overcast,170,2012-12-15 05:15:00
11:35 PM,53.6,51.8,94,29.83,5.0,SSW,4.6,-,N/A,,Overcast,200,2012-12-15 05:35:00
11:55 PM,53.6,51.8,94,29.83,10.0,SSW,4.6,-,N/A,,Overcast,210,2012-12-15 05:55:00